Location: Casson
(47.3876°N, 1.5565°W)
Time: 05:53:34
(UTC+00:00)

Daily predictions for brighter satellites

Satellite Brightness Start Highest point End
(mag) Time Altitude Azimuth Time Altitude Azimuth Time Altitude Azimuth
Cosmos 1825 2.0 00:04:51 55° ESE 00:05:06 57° E 00:08:30 10° NNE
SL-4 R/B 2.0 00:01:58 10° WNW 00:05:59 58° SSW 00:06:37 51° S
Cosmos 2154 Rocket 4.3 00:07:15 29° SSE 00:10:16 55° E 00:16:23 10° NNE
Cosmos 2297 Rocket 2.3 00:09:02 28° SW 00:12:07 75° WNW 00:17:47 10° NNE
NOSS 3-2 (A) 4.1 00:12:23 26° SE 00:13:39 29° ESE 00:18:39 10° NE
Okean 1 Rocket 3.1 00:10:16 10° N 00:14:38 70° E 00:16:03 41° SSE
Cosmos 2219 4.0 00:14:01 29° SSE 00:15:58 37° ESE 00:21:05 10° NE
Aureole 1 Rocket 4.3 00:17:04 22° ESE 00:17:38 23° E 00:20:56 10° NE
PSLV R/B 3.7 00:15:48 10° N 00:19:59 62° WNW 00:21:22 38° SW
Cosmos 1354 Rocket 4.3 00:25:11 29° SW 00:27:51 64° WNW 00:33:09 10° NNE
COSMOS 2428 4.4 00:27:33 10° WNW 00:31:14 18° W 00:32:52 16° WSW
Cosmos 2084 Rocket 3.5 00:31:32 33° WSW 00:33:20 70° NW 00:37:28 10° NE
Resurs 1-4 Rocket 4.5 00:32:28 10° ENE 00:34:14 12° E 00:35:59 10° ESE
H-2A R/B 2.1 00:30:19 10° N 00:34:33 67° WNW 00:35:54 40° SW
Cosmos 1975 Rocket 4.1 00:37:42 27° SE 00:39:18 36° E 00:43:20 10° NNE
Cosmos 292 Rocket 4.3 00:40:12 33° SSE 00:41:47 45° ESE 00:46:23 10° NNE
Cosmos 2263 Rocket 2.8 00:42:06 30° SSE 00:44:21 44° ESE 00:49:37 10° NE
Cosmos 405 Rocket 4.3 00:43:03 10° NW 00:45:55 21° W 00:46:23 20° W
BlueWalker 3 3.4 00:43:21 10° W 00:46:52 37° NNW 00:50:23 10° ENE
BREEZE-M DEB (TANK) 3.9 00:45:24 11° W 00:48:16 73° N 00:56:14 10° E
Cosmos 332 Rocket 4.3 00:48:13 28° SW 00:50:34 55° WNW 00:55:23 10° NNE
Cosmos 1455 Rocket 3.2 00:46:39 10° N 00:51:07 72° E 00:52:57 34° SSE
Cosmos 2074 Rocket 4.2 00:49:56 28° SSW 00:53:11 60° WNW 00:59:21 10° N
Okean 2 Rocket 4.2 00:50:12 10° NNW 00:54:07 30° W 00:55:21 26° WSW
Cosmos 2341 Rocket 4.5 00:56:40 23° SSE 01:00:21 53° E 01:06:23 10° NNE
Cosmos 1818 4.0 00:57:18 10° NNW 01:02:46 62° NE 01:08:10 10° SE
Helios 1A Rocket 3.0 01:02:09 31° SE 01:03:45 62° ENE 01:07:31 10° N
Cosmos 1025 Rocket 3.1 01:02:30 38° SW 01:04:00 64° W 01:08:19 10° N
Cosmos 1461 3.6 01:06:45 31° SE 01:07:32 34° ESE 01:11:05 10° NE
COSMOS 2455 4.5 01:03:12 10° W 01:08:24 29° NW 01:13:39 10° NNE
Cosmos 990 Rocket 4.2 01:08:08 29° SW 01:10:42 61° WNW 01:15:48 10° NNE
TIMED 4.4 01:10:13 39° SSW 01:11:48 88° ESE 01:16:09 10° NNE
Cosmos 1892 4.4 01:11:24 17° W 01:12:26 19° WNW 01:15:00 10° NNW
CENTAUR R/B 2.6 01:11:48 23° SW 01:15:37 75° NW 01:22:49 10° NE
In-Cosmos 22 Rocket 4.3 01:14:28 29° S 01:17:37 83° E 01:23:29 10° NNE
SL-19 R/B 3.4 01:14:52 10° NNE 01:17:53 75° ESE 01:18:11 64° SSE
IDEFIX/ARIANE 42P 3.6 01:17:28 10° NNE 01:22:22 38° E 01:25:41 18° SSE
SL-16 R/B 2.4 01:18:10 10° NW 01:23:41 53° WSW 01:26:33 27° S
Cosmos 1869 3.2 01:24:31 10° N 01:28:13 72° E 01:29:52 31° SSE
Cosmos 2237 Rocket 4.0 01:26:26 10° WNW 01:29:31 15° W 01:30:46 14° WSW
GEOS 3 Rocket 4.2 01:28:54 10° NNE 01:33:56 52° NW 01:37:52 16° WSW
Cosmos 2082 3.7 01:31:20 27° SSW 01:34:32 84° WNW 01:40:12 10° NNE
CZ-4C R/B 4.1 01:30:35 10° W 01:34:50 26° NNW 01:40:00 10° NNE
Cosmos 2218 Rocket 4.1 01:31:20 23° S 01:35:26 75° E 01:41:37 10° NNE
Cosmos 2227 Rocket 3.4 01:32:03 14° WSW 01:36:20 35° NW 01:41:32 10° NNE
CZ-2C R/B 3.3 01:32:20 10° SE 01:37:26 52° ENE 01:42:41 10° N
Cosmos 1943 3.4 01:32:04 10° NNW 01:37:42 71° ENE 01:43:17 10° SE
CZ-2D R/B 3.2 01:32:56 10° NNE 01:37:54 37° E 01:41:47 15° SSE
Cosmos 1437 Rocket 4.5 01:35:31 14° SE 01:37:56 25° E 01:41:04 10° NE
Cosmos 2366 rocket 4.0 01:37:03 23° S 01:41:11 85° E 01:47:28 10° N
Cosmos 372 Rocket 4.0 01:40:51 27° SSW 01:43:48 79° WNW 01:49:03 10° NNE
MOZ.5/SAFIR/RUBIN 5/SL-8 3.7 01:43:48 24° S 01:46:35 73° WSW 01:51:14 10° NNW
Meteor 1-11 4.4 01:49:40 24° SSW 01:53:15 66° WNW 01:59:04 10° N
Cosmos 2297 Rocket 4.4 01:53:28 10° W 01:57:10 17° NW 02:00:53 10° N
Cosmos 923 Rocket 4.3 01:52:14 10° NNW 01:57:18 49° WSW 02:00:28 22° S
NPP 3.8 01:51:59 10° NNE 01:57:24 73° ESE 02:01:13 20° S
ADEOS II 3.1 01:54:26 10° NNE 01:59:21 38° E 02:03:54 12° SSE
Cosmos 2219 4.1 01:55:55 16° WSW 02:00:04 40° NW 02:05:21 10° NNE
Aureole 1 Rocket 4.2 01:58:24 18° WSW 02:00:33 30° NW 02:04:34 10° N
Cosmos 2228 2.9 01:56:45 10° NNW 02:01:05 77° W 02:03:53 21° S
Cosmos 1544 Rocket 3.8 01:58:30 10° NNW 02:02:52 55° W 02:05:22 23° SSW
Cosmos 1937 Rocket 3.7 01:59:45 22° SW 02:03:06 64° WNW 02:08:20 10° NNE
NOSS 3-2 (A) 3.8 01:59:43 16° WSW 02:03:59 55° NW 02:10:14 10° NE
Cosmos 1606 3.2 02:02:43 10° NNW 02:06:03 37° W 02:07:22 27° SW
Cosmos 1898 Rocket 4.2 02:04:35 19° SW 02:08:02 44° WNW 02:12:58 10° NNE
H-2A R/B 3.3 02:05:03 10° NNE 02:09:03 85° E 02:11:32 22° SSW
SL-16 R/B 3.3 02:03:32 10° SE 02:09:33 53° ENE 02:15:35 10° N
Cosmos 2227 4.3 02:05:48 20° SSW 02:09:48 76° ESE 02:15:34 10° NNE
ALOS 4.0 02:05:57 10° NE 02:09:52 26° E 02:13:45 10° SSE
NOSS 3-2 (C) 3.2 02:06:42 21° SW 02:10:21 88° SE 02:16:38 10° NE
SL-8 Rocket 4.4 02:07:57 20° SW 02:12:08 51° WNW 02:18:11 10° N
USA 267 4.4 02:06:59 10° ENE 02:12:38 30° SE 02:17:24 13° S
Resurs 1-4 Rocket 2.2 02:09:32 10° NNE 02:14:51 80° ESE 02:19:00 17° S
Cosmos 1844 4.5 02:14:10 14° S 02:18:52 47° ESE 02:24:23 10° NE
Cosmos 1812 4.5 02:20:45 10° NNE 02:23:54 28° ENE 02:27:02 10° SE
BlueWalker 3 3.6 02:22:09 10° WNW 02:25:38 35° N 02:29:07 10° ENE
Cosmos 2263 Rocket 3.3 02:23:46 12° WSW 02:28:22 34° NW 02:33:27 10° NNE
Cosmos 1727 Rocket 4.1 02:24:35 10° NNW 02:30:52 69° W 02:37:10 10° S
Cosmos 921 Rocket 2.9 02:30:49 10° NNW 02:35:05 84° WSW 02:39:15 10° SSE
COSMOS 2441 4.3 02:31:26 10° NNE 02:36:15 86° WNW 02:40:25 14° SSW
Cosmos 1606 Rocket 3.5 02:33:54 10° N 02:38:22 85° W 02:42:47 10° S
Cosmos 1680 Rocket 4.4 02:34:33 10° NW 02:39:00 29° W 02:42:30 15° SSW
Cosmos 724 4.5 02:38:47 10° NW 02:44:37 76° NE 02:50:28 10° SE
Cosmos 1461 4.1 02:42:13 10° WSW 02:45:42 30° NW 02:49:10 10° NNE
Cosmos 1536 Rocket 4.3 02:43:23 15° SW 02:46:39 40° WNW 02:50:50 10° N
Cosmos 1844 Rocket 2.7 02:42:29 14° SSW 02:47:22 85° ESE 02:52:59 10° NNE
USA 234 4.1 02:42:53 10° E 02:49:14 55° NNE 02:55:35 10° NW
Cosmos 2058 4.0 02:47:55 10° SSE 02:51:44 42° E 02:55:36 10° NNE
Cosmos 1726 Rocket 3.5 02:49:05 10° NNW 02:53:32 80° W 02:57:56 10° S
Cosmos 1238 Rocket 3.9 02:52:28 10° N 02:55:42 36° ENE 02:58:35 10° SE
Meteor 1-28 Rocket 3.1 02:53:31 10° S 02:57:01 61° W 03:00:33 10° NNW
IDEFIX/ARIANE 42P 3.6 02:57:09 10° N 03:01:48 33° WNW 03:06:26 10° SW
CENTAUR R/B 4.4 03:02:04 10° W 03:07:34 29° NNW 03:14:07 10° NE
CZ-2C R/B 3.7 03:05:48 10° N 03:10:57 44° WNW 03:15:49 10° SW
ASTEX 1 3.6 03:06:50 10° SSW 03:11:33 51° W 03:16:19 10° NNW
Cosmos 1603 4.3 03:07:20 10° NW 03:12:32 36° WSW 03:17:41 10° S
Envisat 3.7 03:07:48 10° NNE 03:12:47 53° E 03:17:43 10° S
Cosmos 1437 Rocket 4.0 03:10:20 10° SW 03:13:30 26° WNW 03:16:44 10° NNW
CZ-2C R/B 3.8 03:10:05 10° NNE 03:14:14 33° E 03:18:22 10° SSE
Cosmos 1048 Rocket 4.2 03:10:06 10° NNW 03:15:08 50° WSW 03:20:13 10° S
Iridium 2 3.0 03:13:45 10° SSW 03:16:06 44° W 03:18:30 10° N
USA 238 DEB 3.8 03:10:36 10° SW 03:16:48 68° NW 03:23:39 10° NE
USA 238 3.8 03:10:38 10° SW 03:16:51 68° NW 03:23:42 10° NE
CZ-2D R/B 3.1 03:13:04 10° N 03:17:51 35° WNW 03:22:35 10° SW
CZ-2C R/B 3.8 03:13:46 10° SW 03:18:00 24° W 03:22:20 10° NW
SAR-Lupe-1 4.1 03:14:25 10° NNE 03:18:01 88° ESE 03:21:36 10° SSW
Cosmos 1607 4.1 03:11:53 10° NW 03:18:07 55° WSW 03:24:13 10° SSE
FENGYUN 3A 4.2 03:18:49 10° N 03:23:55 45° WNW 03:29:01 10° SW
Cosmos 1125 Rocket 3.6 03:21:22 10° SSW 03:26:39 83° WNW 03:31:59 10° NNE
Cosmos 1605 Rocket 4.1 03:26:39 10° S 03:32:50 89° ESE 03:39:01 10° N
